Location: Bernay
(48.6766°N, 2.9386°E)
Time: 22:59:38
(UTC+00:00)

SMAP - Pass Details

Date: 12 January 2026
Orbit: 682 x 683 km, 98.1° (Epoch: 16 February)

Event Time Altitude Azimuth Distance (km) Brightness Sun altitude
Rises 17:32:59 0° 180° (S) 3,034 6.7 -12.3°
Reaches altitude 10° 17:35:16 10° 186° (S) 2,123 5.9 -12.6°
Maximum altitude 17:39:46 48° 261° (W) 893 4.2 -13.3°
Drops below altitude 10° 17:44:18 10° 336° (NNW) 2,139 5.7 -14.1°
Sets 17:46:38 0° 342° (NNW) 3,060 6.4 -14.4°
